Location: Unspecified
(0.0000°N, 0.0000°E)
Time: 04:42:05
(UTC+00:00)

Vanguard 1 - Pass Details

Date: 14 December 2023
Orbit: 653 x 3826 km, 34.3° (Epoch: 22 February)

Event Time Altitude Azimuth Distance (km) Brightness Sun altitude
Rises 15:11:27 0° 299° (WNW) 4,004 13.6 36.9°
Reaches altitude 10° 15:16:25 10° 329° (NNW) 3,628 13.1 35.8°
Maximum altitude 15:19:53 12° 351° (N) 3,862 13.0 35.1°
Drops below altitude 10° 15:24:03 10° 12° (NNE) 4,532 13.2 34.1°
Sets 15:32:48 0° 38° (NE) 6,466 13.8 32.2°
